Location: Unspecified
(0.0000°N, 0.0000°E)
Time: 12:15:09
(UTC+00:00)

SEEDS - Pass Details

Date: 25 September 2021
Orbit: 585 x 601 km, 97.6° (Epoch: 15 October)

Event Time Altitude Azimuth Distance (km) Brightness Sun altitude
Rises 03:41:50 0° 29° (NNE) 2,833 ? -32.5°
Reaches altitude 10° 03:44:12 10° 40° (NE) 1,935 ? -31.9°
Maximum altitude 03:47:53 30° 102° (ESE) 1,089 ? -31.0°
Drops below altitude 10° 03:51:34 10° 163° (SSE) 1,942 ? -30.0°
Sets 03:53:56 0° 173° (S) 2,846 ? -29.4°
